sat.trackr.live / text

‹ back to catalog

QIANFAN-187

NORAD 69405 · 2026-125E

PAYLOAD ACTIVE UNKNOWN

§ Identity

Operator
Country
PRC
Launch date
2026-06-05
Launch site
WSC
Launch vehicle
Mass (kg)
RCS (m²)

External: N2YO · Heavens-Above · Gunter

§ Orbital elements

Epoch: 2026-09-20T04:06:14.077728Z

Period
106.59 min
Inclination
88.9885°
Eccentricity
0.0002185
Mean motion
13.51007334 rev/d
Perigee alt
1,066.9 km
Apogee alt
1,070.2 km
Semi-major
7,446.7 km
B*
2.0444e-5
RAAN
270.3475°
Arg perigee
99.3481°
Mean anomaly
260.7918°
Rev number
1,477

§ Raw data

QIANFAN-1871 69405U 26125E   26263.17099627  .00000025  00000+0  20444-4 0  99942 69405  88.9885 270.3475 0002185  99.3481 260.7918 13.51007334 14779

JSON: /api/v1/satellites/69405 · /tle

For live sub-satellite position, see the globe view (requires WebGL).

§ Visibility from observer

Set your observer location to see the next 7 days of passes ≥ 10°. The values pass through the URL so the page stays shareable.

No JS? Fill the form by hand. The geolocation button needs JavaScript.